{"data":{"norad_id":55157,"epoch":"2026-05-25T03:13:30.325728Z","epoch_age_seconds":60501,"freshness":"FRESH","line1":"1 55157U 23004T   26145.13437877  .00000013  00000+0 -26554-6 0  9992","line2":"2 55157  87.9154  10.4521 0001848  54.6830 305.4474 13.17648984164660","mean_motion":13.17648984,"eccentricity":0.0001848,"inclination_deg":87.9154,"raan_deg":10.4521,"arg_perigee_deg":54.683,"mean_anomaly_deg":305.4474,"bstar":-2.6554e-7,"rev_number":16466,"period_min":109.28555461171,"perigee_km":1192.3140432202,"apogee_km":1195.1125990989,"semimajor_km":7571.8503211595,"source":"CELESTRAK","updated_at":"2026-05-25T13:38:22.642955Z"}}